Time,TemperatureF,DewpointF,PressureIn,WindDirection,WindDirectionDegrees,WindSpeedMPH,WindSpeedGustMPH,Humidity,HourlyPrecipIn,Conditions,Clouds,dailyrainin,SolarRadiationWatts/m^2,SoftwareType,DateUTC
2013-04-20 00:01:00,57.1,6.7,29.90,ENE,74,4.0,4.0,13,0.00,,,0.00,0,LWC V2.00 B727,2013-04-20 07:01:00,
2013-04-20 00:06:00,57.1,6.7,29.89,ENE,77,2.0,3.0,13,0.00,,,0.00,0,LWC V2.00 B727,2013-04-20 07:06:00,
2013-04-20 00:11:00,57.2,6.8,29.90,ENE,78,0.0,3.0,13,0.00,,,0.00,0,LWC V2.00 B727,2013-04-20 07:11:00,
2013-04-20 00:16:00,57.1,6.7,29.89,ENE,78,3.0,4.0,13,0.00,,,0.00,0,LWC V2.00 B727,2013-04-20 07:16:00,
2013-04-20 00:21:00,57.1,6.7,29.90,ENE,78,1.0,3.0,13,0.00,,,0.00,0,LWC V2.00 B727,2013-04-20 07:21:00,
2013-04-20 00:26:00,57.4,7.0,29.89,ENE,78,3.0,3.0,13,0.00,,,0.00,0,LWC V2.00 B727,2013-04-20 07:26:00,
2013-04-20 00:31:00,57.8,5.5,29.89,ENE,78,1.0,2.0,12,0.00,,,0.00,0,LWC V2.00 B727,2013-04-20 07:31:00,
2013-04-20 00:36:00,58.0,5.7,29.89,ENE,78,2.0,3.0,12,0.00,,,0.00,0,LWC V2.00 B727,2013-04-20 07:36:00,
2013-04-20 00:41:00,57.7,7.2,29.89,ENE,78,1.0,4.0,13,0.00,,,0.00,0,LWC V2.00 B727,2013-04-20 07:41:00,
2013-04-20 00:46:00,57.1,6.7,29.89,ENE,78,0.0,0.0,13,0.00,,,0.00,0,LWC V2.00 B727,2013-04-20 07:46:00,
2013-04-20 00:51:00,55.5,8.6,29.89,ENE,78,0.0,0.0,15,0.00,,,0.00,0,LWC V2.00 B727,2013-04-20 07:51:00,
2013-04-20 00:56:00,54.4,7.7,29.89,ENE,78,0.0,1.0,15,0.00,,,0.00,0,LWC V2.00 B727,2013-04-20 07:56:00,
2013-04-20 01:01:00,55.6,7.2,29.88,ENE,78,2.0,3.0,14,0.00,,,0.00,0,LWC V2.00 B727,2013-04-20 08:01:00,
2013-04-20 01:06:00,56.0,7.5,29.88,East,79,3.0,3.0,14,0.00,,,0.00,0,LWC V2.00 B727,2013-04-20 08:06:00,
2013-04-20 01:11:00,56.2,7.7,29.88,East,79,0.0,0.0,14,0.00,,,0.00,0,LWC V2.00 B727,2013-04-20 08:11:00,
2013-04-20 01:16:00,56.3,6.1,29.88,ENE,69,2.0,4.0,13,0.00,,,0.00,0,LWC V2.00 B727,2013-04-20 08:16:00,
2013-04-20 01:21:00,56.2,7.7,29.88,ENE,72,2.0,3.0,14,0.00,,,0.00,0,LWC V2.00 B727,2013-04-20 08:21:00,
2013-04-20 01:26:00,56.2,7.7,29.87,ENE,75,5.0,5.0,14,0.00,,,0.00,0,LWC V2.00 B727,2013-04-20 08:26:00,
2013-04-20 01:31:00,56.2,7.7,29.88,ENE,73,2.0,3.0,14,0.00,,,0.00,0,LWC V2.00 B727,2013-04-20 08:31:00,
2013-04-20 01:36:00,56.6,6.4,29.88,ENE,74,2.0,4.0,13,0.00,,,0.00,0,LWC V2.00 B727,2013-04-20 08:36:00,
2013-04-20 01:41:00,56.9,6.6,29.88,ENE,74,0.0,2.0,13,0.00,,,0.00,0,LWC V2.00 B727,2013-04-20 08:41:00,
2013-04-20 01:46:00,57.4,5.2,29.87,ENE,74,1.0,3.0,12,0.00,,,0.00,0,LWC V2.00 B727,2013-04-20 08:46:00,
2013-04-20 01:51:00,57.7,5.5,29.88,ENE,73,3.0,3.0,12,0.00,,,0.00,0,LWC V2.00 B727,2013-04-20 08:51:00,
2013-04-20 01:56:00,57.4,7.0,29.87,ENE,75,1.0,4.0,13,0.00,,,0.00,0,LWC V2.00 B727,2013-04-20 08:56:00,
2013-04-20 02:01:00,56.9,6.6,29.87,ENE,71,4.0,7.0,13,0.00,,,0.00,0,LWC V2.00 B727,2013-04-20 09:01:00,
2013-04-20 02:06:00,56.6,6.4,29.87,ENE,74,3.0,5.0,13,0.00,,,0.00,0,LWC V2.00 B727,2013-04-20 09:06:00,
2013-04-20 02:11:00,56.0,7.5,29.87,ENE,78,0.0,5.0,14,0.00,,,0.00,0,LWC V2.00 B727,2013-04-20 09:11:00,
2013-04-20 02:16:00,55.5,7.1,29.88,ENE,78,2.0,3.0,14,0.00,,,0.00,0,LWC V2.00 B727,2013-04-20 09:16:00,
2013-04-20 02:21:00,55.1,6.8,29.88,East,80,3.0,5.0,14,0.00,,,0.00,0,LWC V2.00 B727,2013-04-20 09:21:00,
2013-04-20 02:26:00,54.9,8.1,29.88,ENE,78,3.0,5.0,15,0.00,,,0.00,0,LWC V2.00 B727,2013-04-20 09:26:00,
2013-04-20 02:31:00,55.0,6.7,29.88,East,80,5.0,6.0,14,0.00,,,0.00,0,LWC V2.00 B727,2013-04-20 09:31:00,
2013-04-20 02:36:00,55.1,6.8,29.88,ENE,74,4.0,4.0,14,0.00,,,0.00,0,LWC V2.00 B727,2013-04-20 09:36:00,
2013-04-20 02:41:00,55.3,6.9,29.87,ENE,72,3.0,4.0,14,0.00,,,0.00,0,LWC V2.00 B727,2013-04-20 09:41:00,
2013-04-20 02:46:00,55.3,6.9,29.87,ENE,73,4.0,4.0,14,0.00,,,0.00,0,LWC V2.00 B727,2013-04-20 09:46:00,
2013-04-20 02:51:00,55.4,7.0,29.88,ENE,74,3.0,4.0,14,0.00,,,0.00,0,LWC V2.00 B727,2013-04-20 09:51:00,
2013-04-20 02:56:00,55.4,7.0,29.87,ENE,74,0.0,4.0,14,0.00,,,0.00,0,LWC V2.00 B727,2013-04-20 09:56:00,
2013-04-20 03:01:00,55.3,6.9,29.88,ENE,74,0.0,4.0,14,0.00,,,0.00,0,LWC V2.00 B727,2013-04-20 10:01:00,
2013-04-20 03:06:00,55.6,7.2,29.87,ENE,78,4.0,4.0,14,0.00,,,0.00,0,LWC V2.00 B727,2013-04-20 10:06:00,
2013-04-20 03:11:00,55.6,7.2,29.87,ENE,72,4.0,5.0,14,0.00,,,0.00,0,LWC V2.00 B727,2013-04-20 10:11:00,
2013-04-20 03:16:00,55.5,7.1,29.87,ENE,71,2.0,4.0,14,0.00,,,0.00,0,LWC V2.00 B727,2013-04-20 10:16:00,
2013-04-20 03:21:00,55.6,7.2,29.87,ENE,74,3.0,5.0,14,0.00,,,0.00,0,LWC V2.00 B727,2013-04-20 10:21:00,
2013-04-20 03:26:00,55.6,7.2,29.87,ENE,76,3.0,5.0,14,0.00,,,0.00,0,LWC V2.00 B727,2013-04-20 10:26:00,
2013-04-20 03:31:00,55.7,7.3,29.87,ENE,76,3.0,4.0,14,0.00,,,0.00,0,LWC V2.00 B727,2013-04-20 10:31:00,
2013-04-20 03:36:00,55.9,7.4,29.86,ENE,74,3.0,5.0,14,0.00,,,0.00,0,LWC V2.00 B727,2013-04-20 10:36:00,
2013-04-20 03:41:00,55.6,7.2,29.86,ENE,76,2.0,4.0,14,0.00,,,0.00,0,LWC V2.00 B727,2013-04-20 10:41:00,
2013-04-20 03:46:00,55.3,8.5,29.86,East,79,2.0,3.0,15,0.00,,,0.00,0,LWC V2.00 B727,2013-04-20 10:46:00,
2013-04-20 03:51:00,55.5,7.1,29.86,ENE,78,5.0,5.0,14,0.00,,,0.00,0,LWC V2.00 B727,2013-04-20 10:51:00,
2013-04-20 03:56:00,56.0,7.5,29.86,ENE,78,4.0,5.0,14,0.00,,,0.00,0,LWC V2.00 B727,2013-04-20 10:56:00,
2013-04-20 04:01:00,55.9,7.4,29.86,East,80,3.0,6.0,14,0.00,,,0.00,0,LWC V2.00 B727,2013-04-20 11:01:00,
2013-04-20 04:06:00,55.5,7.1,29.86,ENE,74,2.0,4.0,14,0.00,,,0.00,0,LWC V2.00 B727,2013-04-20 11:06:00,
2013-04-20 04:11:00,55.3,6.9,29.86,ENE,76,1.0,4.0,14,0.00,,,0.00,0,LWC V2.00 B727,2013-04-20 11:11:00,
2013-04-20 04:16:00,54.9,8.1,29.86,ENE,76,0.0,0.0,15,0.00,,,0.00,0,LWC V2.00 B727,2013-04-20 11:16:00,
2013-04-20 04:21:00,53.1,9.5,29.86,ENE,76,0.0,1.0,17,0.00,,,0.00,0,LWC V2.00 B727,2013-04-20 11:21:00,
2013-04-20 04:26:00,53.2,8.2,29.86,ENE,76,0.0,0.0,16,0.00,,,0.00,0,LWC V2.00 B727,2013-04-20 11:26:00,
2013-04-20 04:31:00,54.2,7.6,29.86,ENE,76,3.0,3.0,15,0.00,,,0.00,0,LWC V2.00 B727,2013-04-20 11:31:00,
2013-04-20 04:36:00,55.0,8.2,29.86,ENE,76,0.0,0.0,15,0.00,,,0.00,0,LWC V2.00 B727,2013-04-20 11:36:00,
2013-04-20 04:41:00,55.4,7.0,29.86,ENE,76,2.0,3.0,14,0.00,,,0.00,0,LWC V2.00 B727,2013-04-20 11:41:00,
2013-04-20 04:46:00,56.0,5.9,29.86,ENE,76,0.0,2.0,13,0.00,,,0.00,0,LWC V2.00 B727,2013-04-20 11:46:00,
2013-04-20 04:51:00,56.5,6.3,29.86,ENE,74,2.0,4.0,13,0.00,,,0.00,0,LWC V2.00 B727,2013-04-20 11:51:00,
2013-04-20 04:56:00,56.4,6.2,29.87,ENE,74,3.0,4.0,13,0.00,,,0.00,0,LWC V2.00 B727,2013-04-20 11:56:00,
2013-04-20 05:01:00,56.5,6.3,29.87,ENE,74,3.0,4.0,13,0.00,,,0.00,0,LWC V2.00 B727,2013-04-20 12:01:00,
2013-04-20 05:06:00,56.5,6.3,29.86,ENE,75,2.0,5.0,13,0.00,,,0.00,0,LWC V2.00 B727,2013-04-20 12:06:00,
2013-04-20 05:11:00,56.2,7.7,29.86,ENE,74,4.0,4.0,14,0.00,,,0.00,0,LWC V2.00 B727,2013-04-20 12:11:00,
2013-04-20 05:16:00,56.3,7.7,29.86,ENE,72,2.0,4.0,14,0.00,,,0.00,0,LWC V2.00 B727,2013-04-20 12:16:00,
2013-04-20 05:21:00,56.0,7.5,29.86,ENE,72,3.0,5.0,14,0.00,,,0.00,0,LWC V2.00 B727,2013-04-20 12:21:00,
2013-04-20 05:26:00,55.6,8.7,29.86,ENE,76,2.0,3.0,15,0.00,,,0.00,0,LWC V2.00 B727,2013-04-20 12:26:00,
2013-04-20 05:31:00,55.2,8.4,29.86,ENE,76,1.0,4.0,15,0.00,,,0.00,0,LWC V2.00 B727,2013-04-20 12:31:00,
2013-04-20 05:36:00,55.2,8.4,29.86,ENE,76,1.0,3.0,15,0.00,,,0.00,0,LWC V2.00 B727,2013-04-20 12:36:00,
2013-04-20 05:41:00,55.1,8.3,29.86,ENE,78,1.0,2.0,15,0.00,,,0.00,0,LWC V2.00 B727,2013-04-20 12:41:00,
2013-04-20 05:46:00,55.0,11.0,29.87,ENE,78,0.0,0.0,17,0.00,,,0.00,0,LWC V2.00 B727,2013-04-20 12:46:00,
2013-04-20 05:51:00,54.6,9.3,29.87,ENE,78,0.0,0.0,16,0.00,,,0.00,7,LWC V2.00 B727,2013-04-20 12:51:00,
2013-04-20 05:56:00,55.2,8.4,29.87,ENE,78,0.0,0.0,15,0.00,,,0.00,9,LWC V2.00 B727,2013-04-20 12:56:00,
2013-04-20 06:01:00,56.0,7.5,29.87,ENE,78,0.0,0.0,14,0.00,,,0.00,11,LWC V2.00 B727,2013-04-20 13:01:00,
2013-04-20 06:06:00,56.6,6.4,29.87,ENE,78,0.0,0.0,13,0.00,,,0.00,14,LWC V2.00 B727,2013-04-20 13:06:00,
2013-04-20 06:11:00,56.9,6.6,29.87,ENE,78,0.0,0.0,13,0.00,,,0.00,16,LWC V2.00 B727,2013-04-20 13:11:00,
2013-04-20 06:16:00,55.8,8.9,29.87,ENE,78,0.0,0.0,15,0.00,,,0.00,19,LWC V2.00 B727,2013-04-20 13:16:00,
2013-04-20 06:21:00,55.8,8.9,29.87,ENE,78,0.0,0.0,15,0.00,,,0.00,21,LWC V2.00 B727,2013-04-20 13:21:00,
2013-04-20 06:26:00,56.0,9.0,29.87,ENE,78,0.0,1.0,15,0.00,,,0.00,23,LWC V2.00 B727,2013-04-20 13:26:00,
2013-04-20 06:31:00,56.1,11.9,29.87,ENE,78,0.0,0.0,17,0.00,,,0.00,56,LWC V2.00 B727,2013-04-20 13:31:00,
2013-04-20 06:36:00,56.0,11.8,29.87,ENE,78,3.0,3.0,17,0.00,,,0.00,120,LWC V2.00 B727,2013-04-20 13:36:00,
2013-04-20 06:41:00,57.6,11.8,29.87,ENE,65,3.0,4.0,16,0.00,,,0.00,139,LWC V2.00 B727,2013-04-20 13:41:00,
2013-04-20 06:46:00,58.5,12.5,29.87,ENE,64,2.0,4.0,16,0.00,,,0.00,155,LWC V2.00 B727,2013-04-20 13:46:00,
2013-04-20 06:51:00,59.2,14.4,29.88,ENE,64,0.0,2.0,17,0.00,,,0.00,171,LWC V2.00 B727,2013-04-20 13:51:00,
2013-04-20 06:56:00,59.8,16.2,29.88,ENE,63,0.0,2.0,18,0.00,,,0.00,188,LWC V2.00 B727,2013-04-20 13:56:00,
2013-04-20 07:01:00,60.6,15.6,29.88,ENE,63,0.0,1.0,17,0.00,,,0.00,206,LWC V2.00 B727,2013-04-20 14:01:00,
2013-04-20 07:06:00,61.4,16.2,29.88,ENE,64,0.0,3.0,17,0.00,,,0.00,221,LWC V2.00 B727,2013-04-20 14:06:00,
2013-04-20 07:11:00,60.2,15.2,29.88,ENE,64,0.0,0.0,17,0.00,,,0.00,237,LWC V2.00 B727,2013-04-20 14:11:00,
2013-04-20 07:16:00,59.1,15.7,29.88,ENE,64,0.0,0.0,18,0.00,,,0.00,257,LWC V2.00 B727,2013-04-20 14:16:00,
2013-04-20 07:21:00,59.3,17.1,29.88,ENE,64,0.0,0.0,19,0.00,,,0.00,274,LWC V2.00 B727,2013-04-20 14:21:00,
2013-04-20 07:26:00,59.8,19.8,29.88,ENE,64,0.0,0.0,21,0.00,,,0.00,294,LWC V2.00 B727,2013-04-20 14:26:00,
2013-04-20 07:31:00,59.9,18.7,29.88,ENE,64,0.0,1.0,20,0.00,,,0.00,313,LWC V2.00 B727,2013-04-20 14:31:00,
2013-04-20 07:36:00,60.3,20.2,29.88,ENE,64,0.0,0.0,21,0.00,,,0.00,329,LWC V2.00 B727,2013-04-20 14:36:00,
2013-04-20 07:41:00,60.7,18.2,29.88,ENE,64,0.0,0.0,19,0.00,,,0.00,345,LWC V2.00 B727,2013-04-20 14:41:00,
2013-04-20 07:46:00,61.3,18.7,29.88,ENE,64,0.0,0.0,19,0.00,,,0.00,362,LWC V2.00 B727,2013-04-20 14:46:00,
2013-04-20 07:51:00,61.8,19.1,29.88,ENE,64,0.0,0.0,19,0.00,,,0.00,381,LWC V2.00 B727,2013-04-20 14:51:00,
2013-04-20 07:56:00,62.5,18.4,29.88,ENE,64,1.0,1.0,18,0.00,,,0.00,401,LWC V2.00 B727,2013-04-20 14:56:00,
2013-04-20 08:01:00,63.0,17.5,29.88,ENE,64,0.0,1.0,17,0.00,,,0.00,420,LWC V2.00 B727,2013-04-20 15:01:00,
2013-04-20 08:06:00,63.4,17.8,29.88,ENE,63,2.0,2.0,17,0.00,,,0.00,439,LWC V2.00 B727,2013-04-20 15:06:00,
2013-04-20 08:11:00,63.8,19.5,29.88,ENE,64,2.0,2.0,18,0.00,,,0.00,455,LWC V2.00 B727,2013-04-20 15:11:00,
2013-04-20 08:16:00,64.0,19.7,29.88,ENE,65,2.0,3.0,18,0.00,,,0.00,471,LWC V2.00 B727,2013-04-20 15:16:00,
2013-04-20 08:21:00,64.5,18.7,29.88,East,96,1.0,2.0,17,0.00,,,0.00,490,LWC V2.00 B727,2013-04-20 15:21:00,
2013-04-20 08:26:00,64.7,18.9,29.88,East,96,1.0,2.0,17,0.00,,,0.00,508,LWC V2.00 B727,2013-04-20 15:26:00,
2013-04-20 08:31:00,65.5,18.1,29.88,East,96,2.0,3.0,16,0.00,,,0.00,524,LWC V2.00 B727,2013-04-20 15:31:00,
2013-04-20 08:36:00,66.2,17.2,29.88,East,98,3.0,3.0,15,0.00,,,0.00,541,LWC V2.00 B727,2013-04-20 15:36:00,
2013-04-20 08:41:00,66.9,17.8,29.88,East,101,0.0,1.0,15,0.00,,,0.00,557,LWC V2.00 B727,2013-04-20 15:41:00,
2013-04-20 08:46:00,67.7,15.1,29.88,East,101,2.0,3.0,13,0.00,,,0.00,575,LWC V2.00 B727,2013-04-20 15:46:00,
2013-04-20 08:51:00,68.1,13.6,29.88,East,101,1.0,2.0,12,0.00,,,0.00,589,LWC V2.00 B727,2013-04-20 15:51:00,
2013-04-20 08:56:00,68.8,16.0,29.88,East,101,1.0,2.0,13,0.00,,,0.00,606,LWC V2.00 B727,2013-04-20 15:56:00,
2013-04-20 09:01:00,69.3,12.5,29.88,East,101,0.0,1.0,11,0.00,,,0.00,621,LWC V2.00 B727,2013-04-20 16:01:00,
2013-04-20 09:06:00,70.1,13.2,29.88,SE,144,2.0,4.0,11,0.00,,,0.00,638,LWC V2.00 B727,2013-04-20 16:06:00,
2013-04-20 09:11:00,71.6,14.3,29.88,West,270,1.0,3.0,11,0.00,,,0.00,652,LWC V2.00 B727,2013-04-20 16:11:00,
2013-04-20 09:16:00,72.8,10.7,29.89,WNW,294,1.0,4.0,9,0.00,,,0.00,670,LWC V2.00 B727,2013-04-20 16:16:00,
2013-04-20 09:21:00,72.6,12.9,29.89,NNW,336,2.0,3.0,10,0.00,,,0.00,684,LWC V2.00 B727,2013-04-20 16:21:00,
2013-04-20 09:26:00,73.2,15.6,29.89,North,0,1.0,4.0,11,0.00,,,0.00,696,LWC V2.00 B727,2013-04-20 16:26:00,
2013-04-20 09:31:00,73.4,11.2,29.89,NE,43,6.0,6.0,9,0.00,,,0.00,712,LWC V2.00 B727,2013-04-20 16:31:00,
2013-04-20 09:36:00,73.6,8.7,29.89,WNW,302,0.0,3.0,8,0.00,,,0.00,728,LWC V2.00 B727,2013-04-20 16:36:00,
2013-04-20 09:41:00,74.5,9.4,29.89,North,9,2.0,7.0,8,0.00,,,0.00,742,LWC V2.00 B727,2013-04-20 16:41:00,
2013-04-20 09:46:00,74.2,9.1,29.89,North,355,4.0,6.0,8,0.00,,,0.00,754,LWC V2.00 B727,2013-04-20 16:46:00,
2013-04-20 09:51:00,74.3,9.2,29.89,NNE,17,0.0,6.0,8,0.00,,,0.00,766,LWC V2.00 B727,2013-04-20 16:51:00,
2013-04-20 09:56:00,74.9,6.7,29.89,NNE,28,5.0,7.0,7,0.00,,,0.00,780,LWC V2.00 B727,2013-04-20 16:56:00,
2013-04-20 10:01:00,73.9,8.9,29.89,ENE,69,0.0,3.0,8,0.00,,,0.00,795,LWC V2.00 B727,2013-04-20 17:01:00,
2013-04-20 10:06:00,74.4,9.3,29.89,North,355,3.0,6.0,8,0.00,,,0.00,807,LWC V2.00 B727,2013-04-20 17:06:00,
2013-04-20 10:11:00,74.7,9.5,29.89,NE,38,0.0,3.0,8,0.00,,,0.00,816,LWC V2.00 B727,2013-04-20 17:11:00,
2013-04-20 10:16:00,74.8,9.6,29.89,NE,47,2.0,6.0,8,0.00,,,0.00,828,LWC V2.00 B727,2013-04-20 17:16:00,
2013-04-20 10:21:00,73.3,8.5,29.88,NNE,26,7.0,7.0,8,0.00,,,0.00,835,LWC V2.00 B727,2013-04-20 17:21:00,
2013-04-20 10:26:00,74.2,9.1,29.88,ENE,77,1.0,7.0,8,0.00,,,0.00,851,LWC V2.00 B727,2013-04-20 17:26:00,
2013-04-20 10:31:00,76.2,13.3,29.88,North,5,1.0,7.0,9,0.00,,,0.00,860,LWC V2.00 B727,2013-04-20 17:31:00,
2013-04-20 10:36:00,76.3,10.7,29.88,North,5,1.0,4.0,8,0.00,,,0.00,865,LWC V2.00 B727,2013-04-20 17:36:00,
2013-04-20 10:41:00,77.0,8.2,29.88,NNE,19,1.0,9.0,7,0.00,,,0.00,877,LWC V2.00 B727,2013-04-20 17:41:00,
2013-04-20 10:46:00,75.7,10.2,29.88,NE,44,1.0,2.0,8,0.00,,,0.00,889,LWC V2.00 B727,2013-04-20 17:46:00,
2013-04-20 10:51:00,75.5,7.1,29.88,NNE,32,0.0,6.0,7,0.00,,,0.00,898,LWC V2.00 B727,2013-04-20 17:51:00,
2013-04-20 10:56:00,75.3,9.9,29.87,WNW,294,3.0,4.0,8,0.00,,,0.00,902,LWC V2.00 B727,2013-04-20 17:56:00,
2013-04-20 11:01:00,77.7,8.7,29.87,WSW,240,7.0,7.0,7,0.00,,,0.00,907,LWC V2.00 B727,2013-04-20 18:01:00,
2013-04-20 11:06:00,78.3,9.2,29.87,WNW,292,3.0,5.0,7,0.00,,,0.00,921,LWC V2.00 B727,2013-04-20 18:06:00,
2013-04-20 11:11:00,77.6,8.7,29.87,West,278,3.0,6.0,7,0.00,,,0.00,919,LWC V2.00 B727,2013-04-20 18:11:00,
2013-04-20 11:16:00,77.7,8.7,29.87,WSW,250,3.0,4.0,7,0.00,,,0.00,928,LWC V2.00 B727,2013-04-20 18:16:00,
2013-04-20 11:21:00,79.2,9.8,29.86,NNE,30,6.0,8.0,7,0.00,,,0.00,937,LWC V2.00 B727,2013-04-20 18:21:00,
2013-04-20 11:26:00,77.4,8.5,29.86,NNE,28,1.0,8.0,7,0.00,,,0.00,944,LWC V2.00 B727,2013-04-20 18:26:00,
2013-04-20 11:31:00,77.3,11.4,29.86,NE,39,2.0,6.0,8,0.00,,,0.00,944,LWC V2.00 B727,2013-04-20 18:31:00,
2013-04-20 11:36:00,76.6,7.9,29.85,ENE,74,1.0,5.0,7,0.00,,,0.00,953,LWC V2.00 B727,2013-04-20 18:36:00,
2013-04-20 11:41:00,77.5,8.6,29.85,NNW,331,0.0,7.0,7,0.00,,,0.00,914,LWC V2.00 B727,2013-04-20 18:41:00,
2013-04-20 11:46:00,79.1,9.8,29.85,SW,235,4.0,9.0,7,0.00,,,0.00,940,LWC V2.00 B727,2013-04-20 18:46:00,
2013-04-20 11:51:00,78.3,5.8,29.85,WSW,239,1.0,3.0,6,0.00,,,0.00,963,LWC V2.00 B727,2013-04-20 18:51:00,
2013-04-20 11:56:00,78.0,11.9,29.85,West,277,0.0,1.0,8,0.00,,,0.00,956,LWC V2.00 B727,2013-04-20 18:56:00,
2013-04-20 12:01:00,79.2,9.8,29.84,North,9,0.0,5.0,7,0.00,,,0.00,962,LWC V2.00 B727,2013-04-20 19:01:00,
2013-04-20 12:06:00,77.1,8.3,29.84,ENE,59,0.0,0.0,7,0.00,,,0.00,976,LWC V2.00 B727,2013-04-20 19:06:00,
2013-04-20 12:11:00,78.4,12.2,29.84,WNW,288,7.0,7.0,8,0.00,,,0.00,977,LWC V2.00 B727,2013-04-20 19:11:00,
2013-04-20 12:16:00,80.2,13.6,29.84,NNE,19,1.0,9.0,8,0.00,,,0.00,981,LWC V2.00 B727,2013-04-20 19:16:00,
2013-04-20 12:21:00,80.8,11.0,29.84,North,0,2.0,6.0,7,0.00,,,0.00,984,LWC V2.00 B727,2013-04-20 19:21:00,
2013-04-20 12:26:00,80.2,13.6,29.84,NNE,18,0.0,1.0,8,0.00,,,0.00,969,LWC V2.00 B727,2013-04-20 19:26:00,
2013-04-20 12:31:00,78.6,12.4,29.84,NE,51,0.0,4.0,8,0.00,,,0.00,976,LWC V2.00 B727,2013-04-20 19:31:00,
2013-04-20 12:36:00,78.4,9.3,29.83,ENE,70,0.0,1.0,7,0.00,,,0.00,972,LWC V2.00 B727,2013-04-20 19:36:00,
2013-04-20 12:41:00,78.6,9.4,29.83,ENE,64,0.0,2.0,7,0.00,,,0.00,965,LWC V2.00 B727,2013-04-20 19:41:00,
2013-04-20 12:46:00,80.8,14.0,29.83,NW,309,2.0,8.0,8,0.00,,,0.00,960,LWC V2.00 B727,2013-04-20 19:46:00,
2013-04-20 12:47:00,80.9,14.1,29.83,North,0,2.0,3.0,8,0.00,,,0.00,861,LWC V2.00 B727,2013-04-20 19:47:00,
2013-04-20 12:52:00,81.7,8.2,29.83,WSW,243,0.0,5.0,6,0.00,,,0.00,979,LWC V2.00 B727,2013-04-20 19:52:00,
2013-04-20 12:57:00,81.1,7.8,29.83,SW,223,4.0,5.0,6,0.00,,,0.00,972,LWC V2.00 B727,2013-04-20 19:57:00,
2013-04-20 13:02:00,81.1,7.8,29.83,SW,236,3.0,9.0,6,0.00,,,0.00,953,LWC V2.00 B727,2013-04-20 20:02:00,
2013-04-20 13:07:00,81.3,11.4,29.83,WNW,292,2.0,8.0,7,0.00,,,0.00,960,LWC V2.00 B727,2013-04-20 20:07:00,
2013-04-20 13:12:00,82.4,8.7,29.83,NNW,346,0.0,2.0,6,0.00,,,0.00,953,LWC V2.00 B727,2013-04-20 20:12:00,
2013-04-20 13:17:00,81.6,8.2,29.83,WNW,292,1.0,5.0,6,0.00,,,0.00,949,LWC V2.00 B727,2013-04-20 20:17:00,
2013-04-20 13:22:00,80.3,7.2,29.83,SSW,207,3.0,8.0,6,0.00,,,0.00,949,LWC V2.00 B727,2013-04-20 20:22:00,
2013-04-20 13:27:00,79.0,9.7,29.83,ESE,108,3.0,3.0,7,0.00,,,0.00,947,LWC V2.00 B727,2013-04-20 20:27:00,
2013-04-20 13:32:00,79.8,10.3,29.82,South,188,4.0,6.0,7,0.00,,,0.00,930,LWC V2.00 B727,2013-04-20 20:32:00,
2013-04-20 13:37:00,81.6,11.6,29.82,South,170,1.0,2.0,7,0.00,,,0.00,928,LWC V2.00 B727,2013-04-20 20:37:00,
2013-04-20 13:42:00,83.1,12.7,29.82,WNW,297,1.0,7.0,7,0.00,,,0.00,939,LWC V2.00 B727,2013-04-20 20:42:00,
2013-04-20 13:47:00,82.7,8.9,29.82,NW,325,0.0,4.0,6,0.00,,,0.00,898,LWC V2.00 B727,2013-04-20 20:47:00,
2013-04-20 13:52:00,82.8,12.5,29.82,NNE,22,1.0,1.0,7,0.00,,,0.00,900,LWC V2.00 B727,2013-04-20 20:52:00,
2013-04-20 13:57:00,83.0,9.2,29.82,SW,226,2.0,4.0,6,0.00,,,0.00,877,LWC V2.00 B727,2013-04-20 20:57:00,
2013-04-20 14:02:00,82.2,12.0,29.82,WNW,287,6.0,8.0,7,0.00,,,0.00,856,LWC V2.00 B727,2013-04-20 21:02:00,
2013-04-20 14:07:00,82.5,12.2,29.82,NW,314,2.0,8.0,7,0.00,,,0.00,875,LWC V2.00 B727,2013-04-20 21:07:00,
2013-04-20 14:12:00,82.1,8.5,29.82,North,5,0.0,8.0,6,0.00,,,0.00,867,LWC V2.00 B727,2013-04-20 21:12:00,
2013-04-20 14:17:00,81.4,8.0,29.81,NNE,26,3.0,9.0,6,0.00,,,0.00,800,LWC V2.00 B727,2013-04-20 21:17:00,
2013-04-20 14:22:00,81.5,8.1,29.81,West,271,1.0,9.0,6,0.00,,,0.00,824,LWC V2.00 B727,2013-04-20 21:22:00,
2013-04-20 14:27:00,82.8,9.0,29.81,NNW,348,4.0,9.0,6,0.00,,,0.00,828,LWC V2.00 B727,2013-04-20 21:27:00,
2013-04-20 14:32:00,82.7,8.9,29.81,NW,313,1.0,4.0,6,0.00,,,0.00,816,LWC V2.00 B727,2013-04-20 21:32:00,
2013-04-20 14:37:00,82.8,9.0,29.81,NW,319,4.0,4.0,6,0.00,,,0.00,824,LWC V2.00 B727,2013-04-20 21:37:00,
2013-04-20 14:42:00,83.0,5.1,29.80,NW,320,3.0,6.0,5,0.00,,,0.00,819,LWC V2.00 B727,2013-04-20 21:42:00,
2013-04-20 14:47:00,82.6,4.9,29.80,WSW,241,4.0,8.0,5,0.00,,,0.00,786,LWC V2.00 B727,2013-04-20 21:47:00,
2013-04-20 14:52:00,82.4,4.7,29.80,WNW,296,6.0,10.0,5,0.00,,,0.00,780,LWC V2.00 B727,2013-04-20 21:52:00,
2013-04-20 14:57:00,82.9,5.1,29.80,NNW,327,0.0,7.0,5,0.00,,,0.00,766,LWC V2.00 B727,2013-04-20 21:57:00,
2013-04-20 15:02:00,82.9,5.1,29.80,WNW,290,9.0,9.0,5,0.00,,,0.00,758,LWC V2.00 B727,2013-04-20 22:02:00,
2013-04-20 15:07:00,82.6,8.9,29.80,West,274,4.0,5.0,6,0.00,,,0.00,742,LWC V2.00 B727,2013-04-20 22:07:00,
2013-04-20 15:12:00,82.3,4.7,29.79,NW,307,3.0,6.0,5,0.00,,,0.00,729,LWC V2.00 B727,2013-04-20 22:12:00,
2013-04-20 15:17:00,82.1,8.5,29.79,NNW,347,0.0,2.0,6,0.00,,,0.00,714,LWC V2.00 B727,2013-04-20 22:17:00,
2013-04-20 15:22:00,82.4,8.7,29.79,WSW,257,4.0,7.0,6,0.00,,,0.00,694,LWC V2.00 B727,2013-04-20 22:22:00,
2013-04-20 15:27:00,82.1,8.5,29.79,WNW,284,2.0,5.0,6,0.00,,,0.00,680,LWC V2.00 B727,2013-04-20 22:27:00,
2013-04-20 15:32:00,82.4,8.7,29.79,WNW,302,0.0,8.0,6,0.00,,,0.00,666,LWC V2.00 B727,2013-04-20 22:32:00,
2013-04-20 15:37:00,82.4,4.7,29.79,NW,309,2.0,11.0,5,0.00,,,0.00,652,LWC V2.00 B727,2013-04-20 22:37:00,
2013-04-20 15:42:00,82.6,8.9,29.79,WNW,284,4.0,7.0,6,0.00,,,0.00,640,LWC V2.00 B727,2013-04-20 22:42:00,
2013-04-20 15:47:00,81.7,8.2,29.79,NW,309,7.0,7.0,6,0.00,,,0.00,621,LWC V2.00 B727,2013-04-20 22:47:00,
2013-04-20 15:52:00,82.5,8.8,29.78,NNW,339,2.0,3.0,6,0.00,,,0.00,603,LWC V2.00 B727,2013-04-20 22:52:00,
2013-04-20 15:57:00,82.7,8.9,29.79,WSW,257,6.0,7.0,6,0.00,,,0.00,584,LWC V2.00 B727,2013-04-20 22:57:00,
2013-04-20 16:02:00,82.2,4.6,29.79,SSW,198,6.0,11.0,5,0.00,,,0.00,568,LWC V2.00 B727,2013-04-20 23:02:00,
2013-04-20 16:07:00,81.1,7.8,29.78,SSW,194,3.0,9.0,6,0.00,,,0.00,550,LWC V2.00 B727,2013-04-20 23:07:00,
2013-04-20 16:12:00,82.1,8.5,29.79,NW,310,6.0,7.0,6,0.00,,,0.00,536,LWC V2.00 B727,2013-04-20 23:12:00,
2013-04-20 16:17:00,81.7,11.7,29.78,NW,306,1.0,7.0,7,0.00,,,0.00,520,LWC V2.00 B727,2013-04-20 23:17:00,
2013-04-20 16:22:00,81.8,8.3,29.78,NNW,329,2.0,3.0,6,0.00,,,0.00,501,LWC V2.00 B727,2013-04-20 23:22:00,
2013-04-20 16:27:00,81.5,11.5,29.78,WNW,298,0.0,7.0,7,0.00,,,0.00,485,LWC V2.00 B727,2013-04-20 23:27:00,
2013-04-20 16:32:00,81.0,11.1,29.79,North,9,0.0,6.0,7,0.00,,,0.00,466,LWC V2.00 B727,2013-04-20 23:32:00,
2013-04-20 16:37:00,80.8,11.0,29.78,NW,321,0.0,6.0,7,0.00,,,0.00,445,LWC V2.00 B727,2013-04-20 23:37:00,
2013-04-20 16:43:00,81.4,11.4,29.78,WNW,303,5.0,10.0,7,0.00,,,0.00,429,LWC V2.00 B727,2013-04-20 23:43:00,
2013-04-20 16:48:00,80.7,10.9,29.79,WNW,302,3.0,10.0,7,0.00,,,0.00,413,LWC V2.00 B727,2013-04-20 23:48:00,
2013-04-20 16:53:00,80.9,14.1,29.79,NW,309,1.0,4.0,8,0.00,,,0.00,394,LWC V2.00 B727,2013-04-20 23:53:00,
2013-04-20 16:58:00,80.7,13.9,29.79,North,355,2.0,2.0,8,0.00,,,0.00,376,LWC V2.00 B727,2013-04-20 23:58:00,
2013-04-20 17:03:00,80.7,10.9,29.79,WSW,255,4.0,6.0,7,0.00,,,0.00,357,LWC V2.00 B727,2013-04-21 00:03:00,
2013-04-20 17:08:00,80.5,10.8,29.79,West,273,0.0,6.0,7,0.00,,,0.00,339,LWC V2.00 B727,2013-04-21 00:08:00,
2013-04-20 17:13:00,80.0,13.4,29.79,NNW,327,0.0,4.0,8,0.00,,,0.00,320,LWC V2.00 B727,2013-04-21 00:13:00,
2013-04-20 17:18:00,79.9,13.4,29.79,NW,321,4.0,7.0,8,0.00,,,0.00,301,LWC V2.00 B727,2013-04-21 00:18:00,
2013-04-20 17:23:00,79.6,13.1,29.79,NNE,17,3.0,5.0,8,0.00,,,0.00,285,LWC V2.00 B727,2013-04-21 00:23:00,
2013-04-20 17:28:00,79.4,13.0,29.79,NW,309,0.0,9.0,8,0.00,,,0.00,265,LWC V2.00 B727,2013-04-21 00:28:00,
2013-04-20 17:33:00,79.2,12.8,29.79,North,355,3.0,4.0,8,0.00,,,0.00,244,LWC V2.00 B727,2013-04-21 00:33:00,
2013-04-20 17:38:00,79.4,13.0,29.79,WNW,296,5.0,9.0,8,0.00,,,0.00,223,LWC V2.00 B727,2013-04-21 00:38:00,
2013-04-20 17:43:00,79.1,12.8,29.79,NNW,329,1.0,6.0,8,0.00,,,0.00,202,LWC V2.00 B727,2013-04-21 00:43:00,
2013-04-20 17:48:00,79.0,15.4,29.79,NW,319,1.0,5.0,9,0.00,,,0.00,178,LWC V2.00 B727,2013-04-21 00:48:00,
2013-04-20 17:53:00,78.5,15.0,29.79,WNW,286,5.0,5.0,9,0.00,,,0.00,158,LWC V2.00 B727,2013-04-21 00:53:00,
2013-04-20 17:58:00,78.4,14.9,29.79,NW,307,0.0,6.0,9,0.00,,,0.00,141,LWC V2.00 B727,2013-04-21 00:58:00,
2013-04-20 18:03:00,78.2,14.8,29.80,WNW,298,0.0,7.0,9,0.00,,,0.00,121,LWC V2.00 B727,2013-04-21 01:03:00,
2013-04-20 18:08:00,77.9,14.5,29.80,NW,318,1.0,2.0,9,0.00,,,0.00,100,LWC V2.00 B727,2013-04-21 01:08:00,
2013-04-20 18:13:00,77.7,14.4,29.80,NW,304,1.0,3.0,9,0.00,,,0.00,84,LWC V2.00 B727,2013-04-21 01:13:00,
2013-04-20 18:18:00,77.4,16.6,29.80,NW,314,2.0,3.0,10,0.00,,,0.00,67,LWC V2.00 B727,2013-04-21 01:18:00,
2013-04-20 18:23:00,77.3,16.5,29.80,West,264,5.0,5.0,10,0.00,,,0.00,53,LWC V2.00 B727,2013-04-21 01:23:00,
2013-04-20 18:28:00,77.0,16.3,29.80,West,271,4.0,6.0,10,0.00,,,0.00,35,LWC V2.00 B727,2013-04-21 01:28:00,
2013-04-20 18:33:00,76.6,16.0,29.80,West,280,1.0,5.0,10,0.00,,,0.00,25,LWC V2.00 B727,2013-04-21 01:33:00,
2013-04-20 18:38:00,76.1,15.6,29.80,NW,305,0.0,4.0,10,0.00,,,0.00,19,LWC V2.00 B727,2013-04-21 01:38:00,
2013-04-20 18:43:00,75.7,17.5,29.80,WNW,294,1.0,3.0,11,0.00,,,0.00,16,LWC V2.00 B727,2013-04-21 01:43:00,
2013-04-20 18:48:00,75.3,17.2,29.81,NW,308,0.0,3.0,11,0.00,,,0.00,12,LWC V2.00 B727,2013-04-21 01:48:00,
2013-04-20 18:53:00,74.7,16.7,29.81,NW,310,0.0,3.0,11,0.00,,,0.00,9,LWC V2.00 B727,2013-04-21 01:53:00,
2013-04-20 18:58:00,74.3,16.4,29.81,NW,309,1.0,1.0,11,0.00,,,0.00,5,LWC V2.00 B727,2013-04-21 01:58:00,
2013-04-20 19:03:00,74.0,18.2,29.81,NW,305,0.0,1.0,12,0.00,,,0.00,0,LWC V2.00 B727,2013-04-21 02:03:00,
2013-04-20 19:08:00,73.5,17.8,29.81,NW,305,1.0,1.0,12,0.00,,,0.00,0,LWC V2.00 B727,2013-04-21 02:08:00,
2013-04-20 19:13:00,73.2,17.6,29.82,NW,305,0.0,0.0,12,0.00,,,0.00,0,LWC V2.00 B727,2013-04-21 02:13:00,
2013-04-20 19:18:00,72.9,17.3,29.82,NW,305,0.0,0.0,12,0.00,,,0.00,0,LWC V2.00 B727,2013-04-21 02:18:00,
2013-04-20 19:23:00,72.6,17.1,29.82,NW,305,0.0,0.0,12,0.00,,,0.00,0,LWC V2.00 B727,2013-04-21 02:23:00,
2013-04-20 19:28:00,72.1,16.7,29.82,NW,305,0.0,0.0,12,0.00,,,0.00,0,LWC V2.00 B727,2013-04-21 02:28:00,
2013-04-20 19:33:00,72.2,16.8,29.83,NW,305,0.0,0.0,12,0.00,,,0.00,0,LWC V2.00 B727,2013-04-21 02:33:00,
2013-04-20 19:38:00,71.5,18.1,29.83,NW,305,0.0,0.0,13,0.00,,,0.00,0,LWC V2.00 B727,2013-04-21 02:38:00,
2013-04-20 19:43:00,70.9,17.6,29.83,NW,305,0.0,0.0,13,0.00,,,0.00,0,LWC V2.00 B727,2013-04-21 02:43:00,
2013-04-20 19:48:00,71.0,17.7,29.83,NW,305,0.0,0.0,13,0.00,,,0.00,0,LWC V2.00 B727,2013-04-21 02:48:00,
2013-04-20 19:53:00,70.4,18.9,29.83,NW,305,0.0,0.0,14,0.00,,,0.00,0,LWC V2.00 B727,2013-04-21 02:53:00,
2013-04-20 19:58:00,69.8,18.5,29.83,NW,305,0.0,0.0,14,0.00,,,0.00,0,LWC V2.00 B727,2013-04-21 02:58:00,
2013-04-20 20:03:00,69.2,18.0,29.83,NW,319,2.0,2.0,14,0.00,,,0.00,0,LWC V2.00 B727,2013-04-21 03:03:00,
2013-04-20 20:08:00,68.6,19.1,29.83,NE,51,3.0,4.0,15,0.00,,,0.00,0,LWC V2.00 B727,2013-04-21 03:08:00,
2013-04-20 20:13:00,68.4,20.5,29.84,NE,51,0.0,2.0,16,0.00,,,0.00,0,LWC V2.00 B727,2013-04-21 03:13:00,
2013-04-20 20:18:00,67.7,19.9,29.84,NE,51,0.0,1.0,16,0.00,,,0.00,0,LWC V2.00 B727,2013-04-21 03:18:00,
2013-04-20 20:23:00,67.9,20.1,29.84,NE,51,0.0,0.0,16,0.00,,,0.00,0,LWC V2.00 B727,2013-04-21 03:23:00,
2013-04-20 20:28:00,68.7,19.2,29.84,NE,51,0.0,3.0,15,0.00,,,0.00,0,LWC V2.00 B727,2013-04-21 03:28:00,
2013-04-20 20:33:00,69.3,19.7,29.84,NE,52,0.0,3.0,15,0.00,,,0.00,0,LWC V2.00 B727,2013-04-21 03:33:00,
2013-04-20 20:38:00,69.3,18.1,29.85,NE,52,0.0,1.0,14,0.00,,,0.00,0,LWC V2.00 B727,2013-04-21 03:38:00,
2013-04-20 20:43:00,69.2,19.6,29.85,NE,53,1.0,3.0,15,0.00,,,0.00,0,LWC V2.00 B727,2013-04-21 03:43:00,
2013-04-20 20:48:00,67.7,19.9,29.85,NE,53,2.0,3.0,16,0.00,,,0.00,0,LWC V2.00 B727,2013-04-21 03:48:00,
2013-04-20 20:53:00,67.0,19.3,29.86,ENE,59,2.0,5.0,16,0.00,,,0.00,0,LWC V2.00 B727,2013-04-21 03:53:00,
2013-04-20 20:58:00,67.0,19.3,29.86,ENE,65,4.0,4.0,16,0.00,,,0.00,0,LWC V2.00 B727,2013-04-21 03:58:00,
2013-04-20 21:01:00,66.7,20.5,29.86,ENE,66,1.0,4.0,17,0.00,,,0.00,0,LWC V2.00 B727,2013-04-21 04:01:00,
2013-04-20 21:06:00,66.6,19.0,29.86,ENE,67,2.0,3.0,16,0.00,,,0.00,0,LWC V2.00 B727,2013-04-21 04:06:00,
2013-04-20 21:11:00,66.5,18.9,29.86,ENE,67,2.0,3.0,16,0.00,,,0.00,0,LWC V2.00 B727,2013-04-21 04:11:00,
2013-04-20 21:16:00,66.8,19.2,29.86,ENE,76,2.0,3.0,16,0.00,,,0.00,0,LWC V2.00 B727,2013-04-21 04:16:00,
2013-04-20 21:21:00,66.6,19.0,29.86,ENE,76,1.0,3.0,16,0.00,,,0.00,0,LWC V2.00 B727,2013-04-21 04:21:00,
2013-04-20 21:26:00,66.5,18.9,29.86,ENE,76,1.0,3.0,16,0.00,,,0.00,0,LWC V2.00 B727,2013-04-21 04:26:00,
2013-04-20 21:31:00,66.4,18.9,29.86,ENE,76,2.0,4.0,16,0.00,,,0.00,0,LWC V2.00 B727,2013-04-21 04:31:00,
2013-04-20 21:36:00,66.2,18.7,29.86,ENE,76,2.0,4.0,16,0.00,,,0.00,0,LWC V2.00 B727,2013-04-21 04:36:00,
2013-04-20 21:41:00,66.0,18.5,29.86,ENE,76,4.0,4.0,16,0.00,,,0.00,0,LWC V2.00 B727,2013-04-21 04:41:00,
2013-04-20 21:46:00,65.9,18.5,29.86,ENE,74,2.0,4.0,16,0.00,,,0.00,0,LWC V2.00 B727,2013-04-21 04:46:00,
2013-04-20 21:51:00,65.9,17.0,29.86,ENE,77,2.0,5.0,15,0.00,,,0.00,0,LWC V2.00 B727,2013-04-21 04:51:00,
2013-04-20 21:56:00,65.7,16.8,29.86,East,79,2.0,2.0,15,0.00,,,0.00,0,LWC V2.00 B727,2013-04-21 04:56:00,
2013-04-20 22:01:00,65.6,16.7,29.86,East,79,1.0,3.0,15,0.00,,,0.00,0,LWC V2.00 B727,2013-04-21 05:01:00,
2013-04-20 22:06:00,65.9,17.0,29.86,East,79,1.0,5.0,15,0.00,,,0.00,0,LWC V2.00 B727,2013-04-21 05:06:00,
2013-04-20 22:11:00,66.4,17.4,29.86,ENE,78,3.0,4.0,15,0.00,,,0.00,0,LWC V2.00 B727,2013-04-21 05:11:00,
2013-04-20 22:16:00,66.9,16.2,29.86,East,80,0.0,5.0,14,0.00,,,0.00,0,LWC V2.00 B727,2013-04-21 05:16:00,
2013-04-20 22:21:00,66.4,17.4,29.86,East,80,2.0,3.0,15,0.00,,,0.00,0,LWC V2.00 B727,2013-04-21 05:21:00,
2013-04-20 22:26:00,65.9,17.0,29.86,East,80,2.0,5.0,15,0.00,,,0.00,0,LWC V2.00 B727,2013-04-21 05:26:00,
2013-04-20 22:31:00,65.8,15.3,29.86,East,80,2.0,5.0,14,0.00,,,0.00,0,LWC V2.00 B727,2013-04-21 05:31:00,
2013-04-20 22:36:00,65.8,15.3,29.86,ENE,78,3.0,5.0,14,0.00,,,0.00,0,LWC V2.00 B727,2013-04-21 05:36:00,
2013-04-20 22:41:00,65.7,15.2,29.86,East,79,3.0,5.0,14,0.00,,,0.00,0,LWC V2.00 B727,2013-04-21 05:41:00,
2013-04-20 22:46:00,65.7,15.2,29.86,East,81,1.0,3.0,14,0.00,,,0.00,0,LWC V2.00 B727,2013-04-21 05:46:00,
2013-04-20 22:51:00,65.6,15.1,29.86,East,81,3.0,5.0,14,0.00,,,0.00,0,LWC V2.00 B727,2013-04-21 05:51:00,
2013-04-20 22:56:00,65.9,15.4,29.86,East,80,6.0,6.0,14,0.00,,,0.00,0,LWC V2.00 B727,2013-04-21 05:56:00,
2013-04-20 23:01:00,66.4,15.8,29.86,East,80,3.0,5.0,14,0.00,,,0.00,0,LWC V2.00 B727,2013-04-21 06:01:00,
2013-04-20 23:06:00,66.2,15.6,29.86,East,79,1.0,5.0,14,0.00,,,0.00,0,LWC V2.00 B727,2013-04-21 06:06:00,
2013-04-20 23:11:00,65.8,15.3,29.86,East,80,2.0,2.0,14,0.00,,,0.00,0,LWC V2.00 B727,2013-04-21 06:11:00,
2013-04-20 23:16:00,65.2,16.4,29.87,ENE,78,1.0,5.0,15,0.00,,,0.00,0,LWC V2.00 B727,2013-04-21 06:16:00,
2013-04-20 23:21:00,65.0,16.2,29.86,ENE,76,5.0,5.0,15,0.00,,,0.00,0,LWC V2.00 B727,2013-04-21 06:21:00,
2013-04-20 23:26:00,64.9,16.2,29.87,ENE,76,2.0,3.0,15,0.00,,,0.00,0,LWC V2.00 B727,2013-04-21 06:26:00,
2013-04-20 23:31:00,65.7,15.2,29.87,ENE,78,0.0,3.0,14,0.00,,,0.00,0,LWC V2.00 B727,2013-04-21 06:31:00,
2013-04-20 23:36:00,65.9,15.4,29.87,East,79,2.0,2.0,14,0.00,,,0.00,0,LWC V2.00 B727,2013-04-21 06:36:00,
2013-04-20 23:41:00,65.2,14.8,29.87,ENE,78,3.0,5.0,14,0.00,,,0.00,0,LWC V2.00 B727,2013-04-21 06:41:00,
2013-04-20 23:46:00,64.6,15.9,29.87,ENE,78,0.0,1.0,15,0.00,,,0.00,0,LWC V2.00 B727,2013-04-21 06:46:00,
2013-04-20 23:51:00,63.9,16.8,29.87,East,79,2.0,2.0,16,0.00,,,0.00,0,LWC V2.00 B727,2013-04-21 06:51:00,
2013-04-20 23:56:00,63.8,16.8,29.87,ENE,78,0.0,1.0,16,0.00,,,0.00,0,LWC V2.00 B727,2013-04-21 06:56:00,